Hourly Data Report for January 12, 2018

All times are specified in Local Standard Time (LST). Add 1 hour to adjust for Daylight Saving Time where and when it is observed.

OTTAWA INTL A
ONTARIO

45°19'00.000" N
75°40'00.000" W
114.90 m
6106001
71628
YOW

Download Data

Hourly Data (January 2018)
Hourly Data Report for January 12, 2018
Temp Definition
°C
Dew Point Temp Definition
°C
Rel Hum Definition
%
Wind Dir Definition
10's deg

Wind Spd Definition
km/h
Visibility Definition
km
Stn Press Definition
kPa
Hmdx Definition


Wind Chill Definition


Weather Definition


TIME
00:00 8.1 7.8 98 19 20 8.1 99.60     Rain,Fog
01:00 9.2 8.7 97 19 25 6.4 99.52     Drizzle,Fog
02:00 9.3 8.7 95 20 19 12.9 99.47     Drizzle
03:00 10.0 8.9 93 19 19 16.1 99.37     LegendNANA
04:00 10.3 9.4 94 19 23 12.9 99.28     Cloudy
05:00 10.5 9.8 95 19 20 8.1 99.20     Drizzle,Fog
06:00 10.7 10.0 96 19 22 6.4 99.17     Drizzle,Fog
07:00 11.2 10.5 96 19 23 12.9 99.08     Rain
08:00 11.3 10.7 96 20 19 12.9 99.03     Rain
09:00 11.9 11.3 96 18 18 24.1 98.92     Rain
10:00 11.4 11.0 97 19 15 6.4 98.88     Rain,Fog
11:00 11.5 11.1 97 18 14 4.8 98.77     Rain,Fog
12:00 11.2 10.8 97 20 13 1.2 98.70     Rain,Fog
13:00 4.2 3.6 96 29 33 4.8 98.81     Rain,Fog
14:00 1.8 0.8 93 32 32 4.8 98.95     Rain,Drizzle,Fog
15:00 -0.4 -1.6 92 33 36 3.2 99.13   -8 Freezing Rain,Ice Pellets,Fog
16:00 -3.3 -5.2 87 33 44 6.4 99.34   -12 Freezing Rain,Fog
17:00 -7.0 -9.2 85 33 40 8.1 99.51   -17 Ice Pellets,Blowing Snow
18:00 -8.4 -10.4 85 32 35 3.2 99.71   -18 Snow,Ice Pellets,Blowing Snow
19:00 -9.7 -11.4 87 31 34 1.2 99.89   -20 Snow
20:00 -10.7 -12.9 84 32 36 1.6 100.03   -21 Snow
21:00 -11.1 -13.4 83 32 30 1.6 100.15   -21 Snow
22:00 -11.4 -14.7 77 32 36 16.1 100.24   -22 Snow
23:00 -11.9 -14.6 81 33 35 2.8 100.13   -23 Snow

Notes on Data Quality.

Legend

  • E = Estimated
  • M = Missing
  • NA = Not Available
Date modified: